timestamp,surface_pressure_avg,surface_temp_avg,battery_voltage,lat,long
2021-07-22 00:09:01+00:00,306.7247,16.9,13.05,47.84626,-54.09684
2021-07-22 00:19:01+00:00,299.3847,16.9,12.73,47.84626,-54.09684
2021-07-22 00:29:01+00:00,291.6397,16.9,12.73,47.84626,-54.09684
2021-07-22 00:39:01+00:00,281.8314,16.9,12.73,47.84626,-54.09684
2021-07-22 00:49:01+00:00,271.2314,16.72,12.73,47.84626,-54.09684
2021-07-22 00:59:01+00:00,264.0997,16.69,12.73,47.84626,-54.09684
2021-07-22 01:09:01+00:00,257.8847,16.66,12.73,47.84626,-54.09684
2021-07-22 01:19:01+00:00,250.5898,16.8,12.73,47.84626,-54.09684
2021-07-22 01:29:01+00:00,244.9481,16.89,12.73,47.84626,-54.09684
2021-07-22 01:39:01+00:00,242.0598,17.01,12.73,47.84626,-54.09684
2021-07-22 01:49:01+00:00,238.1714,17.0,12.73,47.84626,-54.09684
2021-07-22 01:59:01+00:00,231.4565,16.96,12.73,47.84626,-54.09684
2021-07-22 02:09:01+00:00,225.8082,16.99,12.73,47.84626,-54.09684
2021-07-22 02:19:01+00:00,222.0331,16.98,12.73,47.84626,-54.09684
2021-07-22 02:29:01+00:00,217.4398,17.06,12.73,47.84626,-54.09684
2021-07-22 02:39:01+00:00,210.3881,17.03,12.73,47.84626,-54.09684
2021-07-22 02:49:01+00:00,204.6115,16.9,12.73,47.84626,-54.09684
2021-07-22 02:59:01+00:00,202.2564,16.6,12.73,47.84626,-54.09684
2021-07-22 03:09:01+00:00,202.4181,16.7,12.73,47.84626,-54.09684
2021-07-22 03:19:01+00:00,198.7131,16.8,12.73,47.84626,-54.09684
2021-07-22 03:29:01+00:00,197.2531,16.69,12.73,47.84626,-54.09684
2021-07-22 03:39:01+00:00,199.2664,16.5,12.73,47.84626,-54.09684
2021-07-22 03:49:01+00:00,197.1665,16.4,12.73,47.84626,-54.09684
2021-07-22 03:59:01+00:00,195.4398,16.78,12.73,47.84626,-54.09684
2021-07-22 04:09:01+00:00,197.4832,16.66,12.73,47.84626,-54.09684
2021-07-22 04:19:01+00:00,199.3231,16.4,12.73,47.84626,-54.09684
2021-07-22 04:29:01+00:00,195.5415,16.49,12.73,47.84626,-54.09684
2021-07-22 04:39:01+00:00,194.1781,16.71,12.73,47.84626,-54.09684
2021-07-22 04:49:01+00:00,197.1081,16.9,12.73,47.84626,-54.09684
2021-07-22 04:59:01+00:00,197.9448,16.7,12.73,47.84626,-54.09684
2021-07-22 05:09:01+00:00,200.9798,16.77,12.73,47.84626,-54.09684
2021-07-22 05:19:01+00:00,205.2948,16.8,12.73,47.84626,-54.09684
2021-07-22 05:29:01+00:00,206.8181,16.8,12.73,47.84626,-54.09684
2021-07-22 05:39:01+00:00,209.9298,16.8,12.73,47.84626,-54.09684
2021-07-22 05:49:01+00:00,215.5248,16.8,12.73,47.84626,-54.09684
2021-07-22 05:59:01+00:00,219.3498,16.8,12.73,47.84626,-54.09684
2021-07-22 06:09:01+00:00,218.5698,16.31,12.73,47.84626,-54.09684
2021-07-22 06:19:01+00:00,225.1597,15.14,12.65,47.84626,-54.09684
2021-07-22 06:29:01+00:00,231.5247,14.2,12.65,47.84626,-54.09684
2021-07-22 06:39:01+00:00,235.3281,14.3,12.65,47.84626,-54.09684
2021-07-22 06:49:01+00:00,237.6997,14.19,12.65,47.84626,-54.09684
2021-07-22 06:59:01+00:00,248.1564,14.1,12.65,47.84626,-54.09684
2021-07-22 07:09:01+00:00,258.3314,14.14,12.65,47.84626,-54.09684
2021-07-22 07:19:00+00:00,265.6531,14.29,12.65,47.84626,-54.09684
2021-07-22 07:29:00+00:00,269.6414,14.3,12.65,47.84626,-54.09684
2021-07-22 07:39:00+00:00,277.598,14.2,12.65,47.84626,-54.09684
2021-07-22 07:49:00+00:00,282.4947,14.1,12.65,47.84626,-54.09684
2021-07-22 07:59:00+00:00,286.6047,14.0,12.65,47.84626,-54.09684
2021-07-22 08:09:00+00:00,291.0264,14.0,12.65,47.84626,-54.09684
2021-07-22 08:19:00+00:00,304.1297,13.8,12.65,47.84626,-54.09684
2021-07-22 08:29:00+00:00,310.8831,13.8,12.65,47.84626,-54.09684
2021-07-22 08:39:00+00:00,311.373,14.0,12.65,47.84626,-54.09684
2021-07-22 08:49:00+00:00,311.873,14.1,12.65,47.84626,-54.09684
2021-07-22 08:59:00+00:00,319.8129,14.1,12.65,47.84626,-54.09684
2021-07-22 09:09:00+00:00,323.2662,14.18,12.65,47.84626,-54.09684
2021-07-22 09:19:00+00:00,322.7064,14.3,12.65,47.84626,-54.09684
2021-07-22 09:29:00+00:00,324.0547,14.3,12.65,47.84626,-54.09684
2021-07-22 09:39:00+00:00,325.4698,14.3,12.65,47.84626,-54.09684
2021-07-22 09:49:00+00:00,328.5562,14.4,12.65,47.84626,-54.09684
2021-07-22 09:59:00+00:00,328.2396,14.5,12.65,47.84626,-54.09684
2021-07-22 10:09:00+00:00,331.8263,14.58,12.65,47.84626,-54.09684
2021-07-22 10:19:01+00:00,332.3915,14.6,12.65,47.84626,-54.09684
2021-07-22 10:29:01+00:00,330.3313,14.6,12.65,47.84626,-54.09684
2021-07-22 10:39:01+00:00,330.5214,14.6,12.65,47.84626,-54.09684
2021-07-22 10:49:01+00:00,334.8196,14.6,12.65,47.84626,-54.09684
2021-07-22 10:59:01+00:00,329.5080000000001,14.5,12.65,47.84626,-54.09684
2021-07-22 11:09:01+00:00,325.4364,14.3,12.65,47.84626,-54.09684
2021-07-22 11:19:00+00:00,329.5648,14.2,12.89,47.84626,-54.09684
2021-07-22 11:29:00+00:00,324.943,14.34,12.89,47.84626,-54.09684
2021-07-22 11:39:00+00:00,318.0231,14.3,12.89,47.84626,-54.09684
2021-07-22 11:49:00+00:00,318.5946,14.15,12.89,47.84626,-54.09684
2021-07-22 11:59:00+00:00,311.948,14.23,12.89,47.84626,-54.09684
2021-07-22 12:09:00+00:00,298.863,14.4,12.89,47.84626,-54.09684
2021-07-22 12:19:01+00:00,295.1496,14.4,13.29,47.84626,-54.09684
2021-07-22 12:29:01+00:00,292.3013,14.41,13.29,47.84626,-54.09684
2021-07-22 12:39:01+00:00,277.548,14.5,13.29,47.84626,-54.09684
2021-07-22 12:49:01+00:00,268.5514,14.57,13.29,47.84626,-54.09684
2021-07-22 12:59:01+00:00,267.8248,14.5,13.29,47.84626,-54.09684
2021-07-22 13:09:01+00:00,258.2881,14.58,13.29,47.84626,-54.09684
2021-07-22 13:19:01+00:00,244.6181,14.7,14.0,47.84626,-54.09684
2021-07-22 13:29:01+00:00,239.9847,14.76,14.0,47.84626,-54.09684
2021-07-22 13:39:01+00:00,232.9498,14.78,14.0,47.84626,-54.09684
2021-07-22 13:49:01+00:00,219.5647,15.17,14.0,47.84626,-54.09684
2021-07-22 13:59:01+00:00,210.2798,15.3,14.0,47.84626,-54.09684
2021-07-22 14:09:01+00:00,209.8214,15.15,14.0,47.84626,-54.09684
2021-07-22 14:19:01+00:00,208.0998,15.2,14.24,47.84626,-54.09684
2021-07-22 14:29:01+00:00,202.4148,15.3,14.24,47.84626,-54.09684
2021-07-22 14:39:01+00:00,197.6748,15.3,14.24,47.84626,-54.09684
2021-07-22 14:49:01+00:00,196.4015,15.35,14.24,47.84626,-54.09684
2021-07-22 14:59:01+00:00,195.6831,15.33,14.24,47.84626,-54.09684
2021-07-22 15:09:01+00:00,190.8665,15.73,14.24,47.84626,-54.09684
2021-07-22 15:19:01+00:00,187.5482,15.77,14.32,47.84626,-54.09684
2021-07-22 15:29:01+00:00,188.6397,15.8,14.32,47.84626,-54.09684
2021-07-22 15:39:01+00:00,188.7265,15.94,14.32,47.84626,-54.09684
2021-07-22 15:49:01+00:00,184.8564,16.09,14.32,47.84626,-54.09684
2021-07-22 15:59:01+00:00,185.0831,16.08,14.32,47.84626,-54.09684
2021-07-22 16:09:01+00:00,187.6115,16.01,14.32,47.84626,-54.09684
2021-07-22 16:19:01+00:00,186.8131,16.0,14.24,47.84626,-54.09684
2021-07-22 16:29:01+00:00,187.9598,16.0,14.24,47.84626,-54.09684
2021-07-22 16:39:01+00:00,191.7698,16.0,14.24,47.84626,-54.09684
2021-07-22 16:49:01+00:00,192.8298,16.16,14.24,47.84626,-54.09684
2021-07-22 16:59:01+00:00,193.4615,16.13,14.24,47.84626,-54.09684
2021-07-22 17:09:01+00:00,199.4148,15.06,14.24,47.84626,-54.09684
2021-07-22 17:19:01+00:00,205.4598,15.03,14.08,47.84626,-54.09684
2021-07-22 17:29:01+00:00,208.5048,15.2,14.08,47.84626,-54.09684
2021-07-22 17:39:01+00:00,213.3331,15.06,14.08,47.84626,-54.09684
2021-07-22 17:49:01+00:00,215.8181,14.9,14.08,47.84626,-54.09684
2021-07-22 17:59:01+00:00,215.9631,14.87,14.08,47.84626,-54.09684
2021-07-22 18:09:01+00:00,221.6481,14.8,14.08,47.84626,-54.09684
2021-07-22 18:19:01+00:00,227.6981,14.7,14.08,47.84626,-54.09684
2021-07-22 18:29:01+00:00,233.7331,14.86,14.08,47.84626,-54.09684
2021-07-22 18:39:01+00:00,240.6964,15.42,14.08,47.84626,-54.09684
2021-07-22 18:49:01+00:00,249.6314,15.79,14.08,47.84626,-54.09684
2021-07-22 18:59:01+00:00,255.8114,15.77,14.08,47.84626,-54.09684
2021-07-22 19:09:01+00:00,262.7731,15.5,14.08,47.84626,-54.09684
2021-07-22 19:19:00+00:00,266.8447,15.5,14.0,47.84626,-54.09684
2021-07-22 19:29:00+00:00,273.8664,16.11,14.0,47.84626,-54.09684
2021-07-22 19:39:00+00:00,282.5947,15.15,14.0,47.84626,-54.09684
2021-07-22 19:49:00+00:00,291.2564,15.65,14.0,47.84626,-54.09684
2021-07-22 19:59:00+00:00,298.678,15.67,14.0,47.84626,-54.09684
2021-07-22 20:09:00+00:00,308.9047,15.02,14.0,47.84626,-54.09684
2021-07-22 20:19:01+00:00,316.4063,14.87,13.84,47.84626,-54.09684
2021-07-22 20:29:01+00:00,327.8313,14.6,13.84,47.84626,-54.09684
2021-07-22 20:39:01+00:00,337.7879,14.43,13.84,47.84626,-54.09684
2021-07-22 20:49:01+00:00,346.3663,14.48,13.84,47.84626,-54.09684
2021-07-22 20:59:01+00:00,354.4046,14.4,13.84,47.84626,-54.09684
2021-07-22 21:09:01+00:00,360.9347,14.28,13.84,47.84626,-54.09684
2021-07-22 21:19:01+00:00,364.0596,14.48,13.76,47.84626,-54.09684
2021-07-22 21:29:01+00:00,365.0129,14.3,13.76,47.84626,-54.09684
2021-07-22 21:39:01+00:00,376.3063,14.2,13.76,47.84626,-54.09684
2021-07-22 21:49:01+00:00,381.4977,14.2,13.76,47.84626,-54.09684
2021-07-22 21:59:01+00:00,378.1444,14.1,13.76,47.84626,-54.09684
2021-07-22 22:09:01+00:00,383.0812,14.08,13.76,47.84626,-54.09684
2021-07-22 22:19:01+00:00,386.2611,14.0,13.44,47.84626,-54.09684
2021-07-22 22:29:01+00:00,383.1946,14.0,13.44,47.84626,-54.09684
2021-07-22 22:39:01+00:00,377.173,14.0,13.44,47.84626,-54.09684
2021-07-22 22:49:01+00:00,379.1779,14.01,13.44,47.84626,-54.09684
2021-07-22 22:59:01+00:00,381.9163,14.06,13.44,47.84626,-54.09684
2021-07-22 23:09:01+00:00,371.9212,14.26,13.44,47.84626,-54.09684
2021-07-22 23:19:01+00:00,368.3029,14.3,13.13,47.84626,-54.09684
2021-07-22 23:29:01+00:00,370.9212,14.2,13.13,47.84626,-54.09684
2021-07-22 23:39:01+00:00,369.1029,14.11,13.13,47.84626,-54.09684
2021-07-22 23:49:01+00:00,363.108,14.3,13.13,47.84626,-54.09684
2021-07-22 23:59:01+00:00,356.7096,14.38,13.13,47.84626,-54.09684
